Tracking 20242 objects as of 24-Jan-2020
HD Live streaming from Space Station
objects crossing your sky now

USA 252

Track USA 252 now!
USA 252 is classified as:


NORAD ID: 39751
Int'l Code: 2014-027A
Perigee: 35,778.3 km
Apogee: 35,810.2 km
Inclination: 2.5 °
Period: 1,436.1 minutes
Semi major axis: 42165 km
RCS: Unknown
Launch date: May 22, 2014
Source: United States (US)
Launch site: AIR FORCE EASTERN TEST RANGE (AFETR)

USA 252 is a secretive spacecraft payload believed to be part of the Satellite Data System (SDS) network.
aabbcc
Your satellite tracking list
Your tracking list is empty




NASA's NSSDC Master Catalog

Two Line Element Set (TLE):
1 39751U 14027A   19359.72987517 0.00000000  00000-0  00000-0 0    05
2 39751   2.5357 166.7102 0003791 338.8112  21.1746  1.00270000    09
Source of the keplerian elements: McCants